EXPRESS-AM7

Last updated on Tue Oct 14 2025 00:02:48 GMT+0000 (Coordinated Universal Time)

1 40505U 15012A 25286.63817880 .00000138 00000+0 00000+0 0 9997 2 40505 0.0213 108.0406 0003314 115.1151 69.0499 1.00273943 38532
UTC large
Height (km)
Speed (km/s)
/
Latitude / Longitude
Inclination (degrees)
Orbital Period (minutes)
Azimuth
Elevation
Range (km)
Doppler Factor

Next 0 passes for location: London (51.5072 / 0.1276)

Sorry there are no passes over London.